CAPE
0 0 0 0 0 0 0 0 0 0 0 0 0 0 0 0 0 0 0 0 0 0 0 0 2 765 2124 2352 2311 2225 2029 2051 2289 2381 1764 2772 2689 2502 2278 2084 2045 2441 2442 2429 2386 2335 2300 2209 2219 2093 1992 1928 1853 1782 1717 1770 1764 1862 1927 1789 1714 1669 1621 1582 1636 1817 1927 1999 1951 1869 1742 1611 1483 1338 1323 1260 1283 1288 1256 1248 1227 1152 1191 1231 1186 1012
0 0 0 0 0 0 0 0 0 0 0 0 0 0 0 0 0 0 0 0 0 0 0 0 247 1510 1998 2204 2323 2142 1730 1800 2128 1682 991 1865 2456 2421 2315 2255 2394 2536 2338 2235 2245 2195 2222 2154 2043 1958 1762 1879 1855 1841 1895 1901 1966 2116 2106 1943 1937 1972 1837 1825 1884 2037 2026 1970 1894 1675 1606 1544 1387 1379 1218 1131 1151 1146 1028 1044 1052 1121 1153 1166 1040 912
0 0 0 0 0 0 0 0 0 0 0 0 0 0 0 0 0 0 0 0 0 0 0 0 0 1164 1893 2102 2168 2101 1635 1690 1764 1049 836 1357 1809 2488 2427 2579 2484 2382 2356 2147 2144 2034 2071 1940 1839 1748 1843 1948 1940 1849 1922 1903 1987 2002 2081 2122 2134 2135 2072 2126 2145 2132 2047 1957 1709 1600 1520 1426 1349 1204 1153 1025 1082 1014 963 889 841 948 985 880 739 642
0 0 0 0 0 0 0 0 0 0 0 0 0 0 0 0 0 0 0 0 0 0 0 0 0 29 1311 2010 2069 2112 1641 1597 1526 1105 1009 1340 1202 1833 2420 2568 2477 2323 2187 2043 2034 1930 1844 1787 1724 1812 1911 1935 1822 1996 1942 1866 2019 2092 2104 2004 2160 2131 2112 2122 2142 1994 1834 1732 1674 1608 1479 1245 908 1022 989 1032 910 813 713 667 544 589 608 592 570 554
0 0 0 0 0 0 0 0 0 0 0 0 0 0 0 0 0 0 0 0 0 0 0 0 0 0 163 1605 1904 1783 1666 1417 1285 1232 1181 1241 1323 1461 1995 2271 2330 2394 2155 1978 1730 1670 1691 1748 1811 1904 1778 1913 1986 2073 1899 1798 1925 2003 2016 1944 1903 1902 1879 1888 1845 1768 1744 1654 1554 1406 995 913 927 1041 979 752 670 619 524 566 452 406 409 357 381 392
0 0 0 0 0 0 0 0 0 0 0 0 0 0 0 0 0 0 0 0 0 0 0 0 0 0 0 1181 1847 1570 1468 1492 1308 1526 1477 1357 1512 1154 1013 1814 2179 2300 2050 1838 1556 1568 1642 1662 1735 1756 1820 1883 1940 2011 1911 1916 1961 1956 1986 1947 1888 1858 1838 1801 1712 1692 1672 1271 1061 976 1059 1113 1250 1218 1013 812 719 684 628 514 429 308 259 196 13 4
0 0 0 0 0 0 0 0 0 0 0 0 0 0 0 0 0 0 0 0 0 0 0 0 0 0 0 391 1262 1673 1478 1512 1566 1435 1129 1336 1568 999 483 864 1824 2099 1831 1658 1454 1610 1573 1757 1700 1698 1699 1693 1721 1850 1826 1905 1940 1963 1972 1751 1581 1642 1641 1606 1513 1365 1100 1186 1308 1287 1288 1266 1199 1044 986 834 769 668 566 473 422 289 81 0 0 0
0 0 0 0 0 0 0 0 0 0 0 0 0 0 0 0 0 0 0 0 0 0 0 0 0 0 0 0 962 1283 1275 1344 1563 1372 1228 1456 1343 803 591 420 1541 1942 1735 1572 1554 1592 1544 1593 1546 1651 1683 1836 1795 1576 1426 1613 1818 1838 1745 1567 1471 1436 1394 1350 1310 1322 1456 1405 1351 1317 1178 1021 835 653 639 608 565 546 523 491 420 208 0 0 0 0
0 0 0 0 0 0 0 0 0 0 0 0 0 0 0 0 0 0 0 0 0 0 0 0 0 0 0 0 88 1134 884 1216 1460 1490 1126 1300 1308 1143 1151 997 1179 1818 1749 1514 1645 1533 1369 1334 1486 1594 1680 1822 1643 1290 1154 1267 1307 1350 1514 1573 1516 1492 1476 1496 1482 1558 1551 1299 1163 994 799 729 647 564 557 525 530 519 488 425 286 0 0 0 0 0
0 0 0 0 0 0 0 0 0 0 0 0 0 0 0 0 0 0 0 0 0 0 0 0 0 0 0 3 303 600 945 1027 1232 1605 1111 880 1074 1047 1201 1412 1628 1977 1861 1530 1681 1462 1347 1249 1387 1603 1727 1603 1410 1234 1215 1052 1040 1273 1484 1570 1574 1561 1572 1543 1575 1471 1297 1146 1023 859 747 682 605 555 531 500 470 429 388 284 0 0 0 0 0 1
0 0 0 0 0 0 0 0 0 0 0 0 0 0 0 0 0 0 0 0 0 0 0 0 0 0 0 0 151 536 850 1132 1146 1308 1473 1398 1608 1368 1524 1733 1999 2133 1823 1545 1532 1226 1102 1152 1368 1536 1659 1248 1149 1210 1208 1054 1065 1217 1424 1539 1545 1533 1509 1461 1353 1179 1071 1015 908 747 662 592 504 465 460 438 420 389 296 0 0 0 0 2 3 4
0 0 0 0 0 0 0 0 0 0 0 0 0 0 0 0 0 0 0 0 0 0 0 0 0 0 0 0 51 491 876 1152 1281 1318 1694 2066 2034 2002 2001 2066 2006 2007 1699 1504 1390 1200 1099 1315 1400 1403 1386 1033 978 1084 1042 939 1056 1190 1298 1425 1416 1412 1350 1288 1184 1049 939 846 734 594 522 456 473 424 87 354 373 304 0 34 0 1 2 3 5 7
0 0 0 0 0 0 0 0 0 0 0 0 0 0 0 0 0 0 0 0 0 0 0 0 0 0 0 0 0 334 850 1213 1359 1426 1777 2130 2188 2195 2104 2042 1862 1806 1675 1551 1422 1334 1374 1512 1528 1387 1161 1097 1081 1029 1031 1012 1050 1117 1220 1324 1351 1268 1184 1136 1035 913 798 683 565 508 492 603 478 406 36 20 18 0 32 130 95 1 2 4 6 18
0 0 0 0 0 0 0 0 0 0 0 0 0 0 0 0 0 0 0 0 0 0 0 0 0 0 0 0 83 255 760 1127 1396 1503 1796 2017 2069 2095 2019 1862 1718 1762 1730 1612 1370 1230 1351 1551 1524 1340 1153 1121 1094 1051 1038 993 1047 1123 1254 1265 1156 1134 1083 1014 942 850 724 593 553 533 639 587 500 150 0 0 0 9 1 3 3 2 6 19 33 44
0 0 0 0 0 0 0 0 0 0 0 0 0 0 0 0 0 0 0 0 0 0 0 0 0 0 0 10 320 418 630 988 1434 1623 1808 1906 2023 2063 1976 1817 1632 1878 1484 1350 1214 1159 1225 1286 1293 1345 1139 1163 1192 1138 1113 1071 1041 1138 1270 1246 1177 1092 1041 967 866 767 673 593 562 707 709 615 388 4 71 20 1 2 6 5 7 8 12 16 40 58
0 0 0 0 0 0 0 0 0 0 0 0 0 0 0 0 0 0 0 0 0 0 0 0 13 195 199 785 529 485 672 1018 1319 1547 1704 1886 1979 1996 1924 1763 1664 1710 1318 1182 1169 1208 1295 1183 1161 1246 1276 1302 1240 1253 1226 1154 1138 1220 1255 1270 1200 1062 967 868 791 721 635 777 898 812 705 525 26 56 48 34 10 16 10 10 15 15 11 11 19 59
0 0 0 0 0 0 0 0 0 0 0 0 0 0 0 0 0 0 0 0 0 0 73 3 29 349 663 644 564 689 790 1082 1232 1359 1579 1794 1937 1953 1882 1752 1480 1587 1431 1145 1347 1617 1448 1400 1287 1189 1311 1292 1312 1337 1270 1152 1078 1059 1022 1044 1110 992 868 842 831 761 706 888 930 831 604 6 2 2 2 7 6 3 3 8 7 7 7 11 21 22
0 0 0 0 0 0 0 0 0 0 0 0 0 0 0 0 0 0 0 0 0 0 0 1 149 335 234 225 719 826 966 1030 1187 1280 1499 1694 1852 1850 1410 1477 1310 1394 1436 1382 1482 1470 1295 1315 1245 1254 1309 1265 1266 1209 1019 885 834 826 785 758 782 761 785 782 749 800 964 986 894 665 117 3 3 4 10 13 7 8 8 4 2 2 3 7 5 5
0 0 0 0 0 0 0 0 0 0 0 0 0 0 0 0 0 0 0 0 0 0 0 20 194 325 196 323 778 938 1058 1169 1186 1331 1441 1570 1788 1811 1311 1272 1356 1401 1258 1213 1235 1346 1324 1087 1173 1110 1167 1174 1196 1137 1008 858 792 830 764 690 618 611 712 791 977 1071 1050 890 620 164 3 2 5 10 6 5 5 5 6 7 10 1 5 8 3 4
0 0 0 0 0 0 0 0 0 0 0 0 0 0 0 0 0 0 0 0 0 0 0 3 33 158 254 374 904 1082 1228 1230 1238 1300 1363 1491 1696 1697 1469 1237 1514 1372 1130 1312 1275 1174 1190 1144 1084 1025 953 1085 1146 1025 994 956 1018 1010 928 782 679 597 693 891 1010 962 769 500 102 4 5 4 2 1 0 4 7 10 6 6 2 9 6 2 2 1
0 0 0 0 0 0 0 0 0 0 0 0 0 0 0 0 0 0 0 0 0 0 0 1 0 0 0 227 764 1100 1178 1229 1257 1264 1272 1405 1559 1544 1452 1374 1549 1558 1320 1249 1148 1107 1130 1108 965 946 888 847 912 893 807 819 992 891 801 658 530 552 757 927 814 630 349 35 4 4 2 1 3 2 3 6 5 1 1 4 15 8 5 1 1 1
0 0 0 0 0 0 0 0 0 0 0 0 0 0 0 0 0 0 0 0 0 0 0 0 0 0 0 55 540 1051 1228 1158 1192 1226 1265 1387 1437 1438 1395 1398 1387 1390 1368 1287 1251 1312 1238 962 907 1042 936 893 821 844 813 794 751 594 446 428 543 644 766 735 482 300 4 4 3 4 4 5 4 5 5 3 1 0 2 10 10 8 4 4 0 2
0 0 0 0 0 0 0 0 0 0 0 0 0 0 0 0 0 0 0 0 0 0 0 0 0 0 0 233 512 1020 1244 1070 1134 1222 1259 1340 1395 1416 1497 1334 1155 1392 1380 1321 1152 1016 1052 902 765 647 645 906 714 609 556 465 391 355 391 504 573 616 556 404 244 55 1 1 2 4 4 4 5 2 0 2 4 6 10 8 7 6 4 2 2 2
10 0 0 0 0 0 0 0 0 0 0 0 0 0 0 0 0 0 0 0 0 0 0 0 0 95 120 454 844 1165 1234 1118 1025 1123 1150 1306 1472 1479 1442 1417 1253 1310 1233 1381 1069 934 999 910 870 962 971 874 706 683 558 406 296 280 365 506 541 458 311 195 2 3 4 3 2 1 2 1 3 6 6 6 6 8 8 6 4 2 0 0 3 2
0 0 0 0 0 0 0 0 0 0 0 0 0 0 0 0 0 0 0 0 0 0 0 0 0 0 167 601 1050 1114 1150 1172 1041 1016 1096 1200 1275 1331 1407 1477 1506 1396 1212 1139 1038 972 766 688 732 788 830 700 653 542 176 65 263 288 388 448 335 257 160 25 2 2 3 3 1 2 4 6 7 8 8 8 6 6 6 4 1 0 0 1 1 0
0 0 0 0 0 0 0 0 0 0 0 0 0 0 0 0 0 0 0 0 0 0 0 0 0 123 421 642 1009 1068 1039 1121 1108 987 991 1075 1132 1183 1283 1302 1317 1174 1072 990 739 788 637 842 813 752 567 546 431 218 266 202 229 278 384 310 238 161 0 2 5 7 6 6 4 6 7 7 6 6 6 6 5 7 2 0 0 0 0 0 0 0
0 0 0 0 0 0 0 0 0 0 0 0 0 0 0 0 0 0 0 0 0 0 0 0 0 300 454 640 905 1088 1104 1132 1108 993 971 998 979 1092 1059 1082 1084 1062 1045 1008 1075 1032 962 940 731 551 502 415 160 228 208 250 183 180 282 240 141 25 1 6 7 6 5 5 7 8 6 5 3 6 7 6 4 2 0 0 0 0 0 0 0 0
0 0 0 0 0 1 0 0 0 0 0 0 0 0 0 0 0 0 0 0 0 0 0 0 0 177 329 580 807 973 1024 1126 1134 1074 984 921 881 907 962 1011 1041 1043 1033 1030 992 862 538 512 596 504 492 196 264 290 346 15 11 190 224 158 34 2 8 9 9 9 9 6 6 4 4 3 7 7 6 4 1 0 0 0 0 0 0 0 0 0
0 0 0 0 0 0 0 0 0 0 0 0 0 0 0 0 0 0 0 0 0 0 0 0 0 0 267 548 651 866 878 866 942 1021 951 924 878 878 963 982 966 951 908 919 786 430 406 627 646 614 333 282 332 273 184 20 50 191 177 16 3 9 9 9 12 8 6 4 2 2 3 6 7 4 3 0 0 0 0 0 0 0 0 0 0 0
0 2 1 1 4 2 2 2 0 0 0 0 0 0 0 0 0 0 0 0 0 0 0 0 0 4 138 537 530 691 758 815 821 887 923 928 984 947 953 969 939 895 874 810 673 505 457 634 621 621 489 326 326 239 215 78 189 163 74 1 6 9 7 11 7 6 4 1 1 0 1 3 4 3 1 0 0 0 0 0 0 0 0 0 0 0
0 3 3 2 2 4 3 0 0 0 0 0 0 0 0 0 0 0 0 0 0 0 0 0 0 15 244 540 511 596 673 791 853 918 997 947 978 1032 1001 999 1047 978 932 858 739 646 423 599 583 557 218 230 176 183 239 140 160 93 0 3 4 6 5 10 6 5 2 0 0 1 2 2 2 1 0 0 0 0 0 0 0 0 0 0 0 0
0 0 2 4 2 4 30 6 3 0 0 0 0 0 0 0 0 0 0 0 0 0 0 0 0 0 289 556 558 617 608 779 899 929 965 1008 1041 1072 1041 995 962 920 916 702 608 559 529 553 488 399 353 212 162 223 280 115 38 0 0 1 2 6 9 6 4 3 1 0 0 0 1 1 0 0 0 0 0 0 0 0 0 0 0 0 0 0
0 0 0 1 3 6 54 35 15 0 0 1 98 0 0 0 0 0 0 0 0 0 0 0 0 0 310 507 548 621 656 727 890 926 964 977 1039 1100 1122 1110 996 593 292 602 643 563 493 407 323 347 340 136 166 39 106 41 0 0 0 0 2 7 7 5 3 2 1 0 0 0 0 0 0 0 0 0 0 0 0 0 0 0 0 0 0 0
0 0 0 0 4 2 6 13 9 15 0 1 97 215 0 0 0 0 0 0 0 0 0 0 0 0 374 427 495 556 615 707 801 842 872 938 897 958 1029 939 740 685 556 639 572 470 410 234 251 328 290 56 54 10 0 0 0 0 0 0 2 6 4 5 4 2 1 2 0 0 0 0 0 0 0 0 0 0 0 0 0 0 0 0 0 0
0 0 0 0 4 5 4 3 0 0 0 1 28 284 265 235 153 0 0 0 0 0 0 0 1 73 306 432 403 490 618 584 563 650 670 735 788 799 875 839 804 705 649 595 553 399 223 221 258 214 32 35 13 1 0 0 0 0 0 1 3 6 6 6 5 1 1 1 1 1 1 0 0 0 0 0 0 0 0 0 0 0 0 0 0 0
1 0 0 2 3 2 2 0 0 0 124 133 184 220 321 239 210 38 108 0 0 0 0 0 2 200 273 378 371 402 499 605 598 669 680 678 685 746 767 806 709 606 503 361 315 247 233 237 186 78 7 13 5 2 1 0 0 0 0 1 3 4 6 7 5 1 0 0 1 1 0 0 0 0 0 0 0 0 0 0 0 0 0 0 0 0
0 1 2 2 0 4 3 0 0 5 65 170 176 135 193 104 0 0 121 0 0 0 0 2 34 149 214 358 330 337 406 541 631 638 686 760 813 790 768 617 447 363 396 395 229 198 233 173 134 45 34 20 11 5 2 0 0 0 0 0 2 5 7 5 2 2 0 0 0 0 0 0 0 0 0 0 0 0 0 0 0 0 0 0 0 0
0 8 3 5 4 0 2 0 0 0 12 48 111 182 221 223 55 19 11 128 0 0 93 30 50 136 196 277 299 316 362 498 549 610 659 759 733 700 633 534 472 475 407 214 182 215 180 162 111 38 40 87 38 3 0 0 0 0 0 1 2 4 4 2 1 1 0 0 0 0 0 0 0 0 0 0 0 0 0 0 0 0 0 0 0 0
0 0 0 1 6 3 1 3 0 0 0 0 136 265 282 221 174 191 0 37 0 166 182 192 7 95 142 197 255 232 321 418 522 635 550 673 718 739 715 546 492 412 249 178 180 148 119 60 21 60 124 106 45 1 0 0 0 0 0 2 3 4 3 1 0 0 0 0 0 0 0 0 0 0 0 0 0 0 0 0 0 0 0 0 0 0
42 0 0 0 1 2 5 4 10 1 196 4 77 236 265 344 160 126 0 0 0 0 220 180 186 96 110 140 196 219 303 440 452 575 553 649 686 600 529 469 308 232 192 140 144 66 38 54 41 86 119 89 44 0 0 0 0 0 2 3 2 1 0 0 0 0 0 0 0 0 0 0 0 0 0 0 0 0 0 0 0 0 0 0 0 0
9 8 0 1 0 1 0 2 5 5 2 2 48 256 186 264 233 0 0 0 0 59 234 215 182 136 92 134 144 270 320 376 423 383 430 600 539 479 386 259 150 205 173 145 120 40 61 78 93 76 59 53 12 0 0 0 0 5 5 2 0 0 0 0 0 0 0 0 0 0 0 0 0 0 0 0 0 0 0 0 0 0 0 0 0 0
8 7 4 0 1 12 7 24 6 0 0 0 184 268 226 94 0 0 0 0 0 33 224 257 223 158 114 128 138 236 246 238 285 321 400 470 465 394 267 178 171 138 62 155 112 93 90 71 92 84 54 0 0 0 0 0 0 0 1 0 0 0 0 0 0 0 0 0 0 0 0 0 0 0 0 0 0 0 0 0 0 0 0 0 0 0
19 0 0 0 0 0 0 0 0 0 0 0 248 219 227 22 14 84 0 33 0 0 168 230 262 250 153 119 119 166 226 203 252 279 341 382 333 248 158 145 142 36 46 66 70 95 84 47 47 50 26 7 1 0 0 0 0 0 0 0 0 0 0 0 0 0 0 0 0 0 0 0 0 0 0 0 0 0 0 0 0 0 0 0 0 0
14 7 8 0 0 0 0 0 0 0 0 0 150 314 134 0 122 95 123 24 20 37 158 172 188 228 203 196 115 122 155 171 216 259 290 272 207 160 149 178 89 27 53 53 74 93 69 60 46 30 3 15 0 0 0 0 0 0 0 0 0 0 0 0 0 0 0 0 0 0 0 0 0 0 0 0 0 0 0 0 0 0 0 0 0 0
0 8 2 42 4 0 0 0 68 8 0 0 101 32 24 0 0 32 0 60 0 119 131 174 162 164 253 250 172 102 111 129 190 242 224 170 135 136 177 148 47 16 12 19 49 73 62 76 64 12 28 55 38 0 0 0 0 0 0 0 0 0 0 0 0 0 0 0 0 0 0 0 0 0 0 0 0 0 0 0 0 0 0 0 0 0
23 0 0 0 0 0 0 14 0 0 0 21 27 68 97 82 19 0 0 27 0 86 127 169 179 227 258 249 185 112 60 95 143 188 145 106 116 149 128 52 1 11 3 3 11 28 29 44 57 37 68 85 40 0 0 0 0 0 0 0 0 0 0 0 0 0 0 0 0 0 0 0 0 0 0 0 0 0 0 0 0 0 0 0 0 0
0 0 0 0 0 0 10 0 0 0 0 0 0 0 29 14 96 0 0 0 0 71 119 157 176 210 234 200 137 71 26 7 103 67 0 0 85 123 61 6 1 0 0 0 0 20 18 10 32 62 77 41 5 0 0 0 0 0 0 0 0 0 0 0 0 0 0 0 0 0 0 0 0 0 0 0 0 0 0 0 0 0 0 0 0 0
0 0 0 0 0 0 0 0 0 0 0 0 0 0 0 0 0 0 0 0 0 0 0 129 135 157 184 153 80 0 0 0 0 0 0 0 83 51 7 1 0 1 2 7 28 38 20 22 32 52 23 8 0 0 0 0 0 0 0 0 0 0 0 0 0 0 0 0 0 0 0 0 0 0 0 0 0 0 0 0 0 0 0 0 0 0
0 0 0 0 0 0 2 0 0 0 0 0 0 0 0 0 0 0 0 0 0 0 0 0 120 64 77 157 13 0 0 0 0 0 0 0 11 15 3 2 0 0 4 8 14 13 12 10 6 6 2 0 0 0 0 0 0 0 0 0 0 0 0 0 0 0 0 0 0 0 0 0 0 0 0 0 0 0 0 0 0 0 0 0 0 0
0 0 0 0 0 0 0 0 0 0 0 0 0 0 0 0 0 0 0 0 0 0 0 0 68 112 146 143 131 0 0 4 0 8 0 0 5 5 1 1 5 9 7 4 3 3 1 0 0 0 0 0 0 0 0 0 0 0 0 0 0 0 0 0 0 0 0 0 0 0 0 0 0 0 0 0 0 0 0 0 0 0 0 0 0 0
0 0 0 0 0 0 0 0 0 0 0 0 0 0 0 0 0 0 0 0 0 0 0 0 0 75 87 129 136 63 67 22 1 95 0 0 0 0 0 1 8 12 8 2 2 1 0 0 0 0 0 0 0 0 0 0 0 0 0 0 0 0 0 0 0 0 0 0 0 0 0 0 0 0 0 0 0 0 0 0 0 0 0 0 0 0
Wind_Speed
nan nan nan nan nan nan nan nan nan nan nan nan nan nan nan nan nan nan nan nan nan nan nan nan nan 32 32 31 32 33 35 34 32 30 24 25 25 25 24 21 19 20 20 20 20 19 18 18 17 18 19 18 17 16 19 20 19 18 16 16 16 16 18 19 17 16 16 17 16 16 15 12 13 14 15 15 16 19 19 19 19 19 18 18 18 19
nan nan nan nan nan nan nan nan nan nan nan nan nan nan nan nan nan nan nan nan nan nan nan nan 36 31 29 30 35 38 36 29 25 19 23 21 23 23 22 20 20 22 21 21 19 16 16 16 17 17 17 16 15 16 18 18 17 16 16 16 15 13 15 16 15 15 16 16 14 15 13 14 14 14 15 16 19 20 20 20 18 17 17 17 18 18
nan nan nan nan nan nan nan nan nan nan nan nan nan nan nan nan nan nan nan nan nan nan nan nan nan 30 29 32 36 35 30 24 21 20 18 24 21 21 18 20 24 24 21 18 15 14 15 17 17 16 15 14 15 17 17 15 15 14 15 16 13 12 15 15 15 15 15 14 14 15 14 16 14 15 16 18 18 21 21 19 17 16 17 17 17 18
nan nan nan nan nan nan nan nan nan nan nan nan nan nan nan nan nan nan nan nan nan nan nan nan nan nan 37 39 36 32 34 36 35 33 29 28 23 20 20 24 26 23 18 13 12 13 15 16 16 15 15 14 15 16 16 15 15 13 14 13 11 12 14 13 12 13 13 14 15 16 16 16 17 15 16 18 19 21 21 19 18 16 16 18 18 19
nan nan nan nan nan nan nan nan nan nan nan nan nan nan nan nan nan nan nan nan nan nan nan nan nan nan 37 35 38 44 40 42 35 32 31 29 33 35 35 30 26 20 13 11 11 11 13 15 15 14 14 15 16 16 14 14 14 11 11 10 10 12 14 15 16 16 17 18 18 17 17 17 16 16 17 19 19 21 20 21 18 17 18 18 18 20
nan nan nan nan nan nan nan nan nan nan nan nan nan nan nan nan nan nan nan nan nan nan nan nan nan nan nan 31 32 39 40 39 32 29 28 28 27 23 26 28 25 18 12 11 8 8 11 14 15 16 16 17 17 16 13 13 11 9 8 11 16 19 20 21 19 17 18 17 18 17 17 17 17 17 18 20 19 18 19 18 17 16 18 18 nan nan
nan nan nan nan nan nan nan nan nan nan nan nan nan nan nan nan nan nan nan nan nan nan nan nan nan nan nan 32 33 37 34 36 29 19 18 18 17 19 19 19 18 14 11 10 7 7 10 12 15 17 18 18 17 15 13 14 13 11 10 12 16 19 22 22 20 18 19 19 18 19 20 20 21 20 19 20 21 20 17 17 19 17 nan nan nan nan
nan nan nan nan nan nan nan nan nan nan nan nan nan nan nan nan nan nan nan nan nan nan nan nan nan nan nan nan 37 36 35 34 27 18 18 15 17 18 16 11 16 12 10 8 5 8 9 10 12 14 16 17 17 16 16 16 15 14 14 15 17 20 23 21 19 19 18 20 20 22 22 22 22 23 23 21 21 21 19 19 18 17 nan nan nan nan
nan nan nan nan nan nan nan nan nan nan nan nan nan nan nan nan nan nan nan nan nan nan nan nan nan nan nan nan nan 37 33 30 22 18 14 16 17 17 18 19 10 10 8 5 4 7 7 6 8 10 13 16 17 18 18 17 16 16 17 18 19 22 22 21 20 21 21 22 23 23 22 23 21 23 23 22 22 22 19 19 16 nan nan nan nan nan
nan nan nan nan nan nan nan nan nan nan nan nan nan nan nan nan nan nan nan nan nan nan nan nan nan nan nan nan 38 35 28 22 19 15 11 12 13 16 19 18 6 8 6 3 3 5 7 7 9 11 14 17 18 18 18 18 18 18 17 19 22 22 20 20 22 23 24 24 24 24 23 23 22 22 23 24 23 21 19 19 nan nan nan nan nan nan
nan nan nan nan nan nan nan nan nan nan nan nan nan nan nan nan nan nan nan nan nan nan nan nan nan nan nan nan 31 32 18 15 17 20 19 16 16 18 20 18 12 9 5 2 4 7 8 11 14 13 15 17 19 20 20 19 18 17 19 20 23 21 21 22 21 23 25 25 24 24 23 24 24 23 24 23 22 21 20 nan nan nan nan nan nan nan
nan nan nan nan nan nan nan nan nan nan nan nan nan nan nan nan nan nan nan nan nan nan nan nan nan nan nan nan nan 25 25 18 20 18 15 14 12 16 16 14 13 9 5 5 8 10 12 15 16 16 17 18 19 20 21 18 17 18 18 21 24 23 23 21 20 24 25 26 25 24 23 24 24 25 nan 24 23 22 nan nan nan nan nan nan nan nan
nan nan nan nan nan nan nan nan nan nan nan nan nan nan nan nan nan nan nan nan nan nan nan nan nan nan nan nan nan 24 25 22 20 17 13 10 13 14 12 13 13 11 9 8 10 11 12 14 16 18 19 20 19 20 20 18 18 18 19 21 25 23 22 21 21 25 25 26 25 24 24 23 23 25 nan nan nan nan nan 21 nan nan nan nan nan nan
nan nan nan nan nan nan nan nan nan nan nan nan nan nan nan nan nan nan nan nan nan nan nan nan nan nan nan nan nan 27 25 27 24 27 25 19 17 16 14 14 14 12 13 11 11 11 12 14 16 16 17 17 18 19 21 20 20 20 21 21 24 22 19 20 23 24 26 26 25 24 24 24 24 25 nan nan nan nan nan nan nan nan nan nan nan nan
nan nan nan nan nan nan nan nan nan nan nan nan nan nan nan nan nan nan nan nan nan nan nan nan nan nan nan nan 35 32 30 30 34 35 31 25 22 22 20 19 19 15 17 13 11 13 15 16 18 16 14 15 16 17 20 20 20 21 21 21 22 21 20 22 23 25 26 25 25 25 24 24 25 nan nan nan nan nan nan nan nan nan nan nan nan nan
nan nan nan nan nan nan nan nan nan nan nan nan nan nan nan nan nan nan nan nan nan nan nan nan nan 46 41 36 33 32 32 31 34 36 34 27 25 24 22 21 19 17 19 14 13 17 19 19 19 17 15 15 16 16 17 18 18 20 20 21 20 21 21 24 25 25 25 25 25 25 25 24 nan nan nan nan nan nan nan nan nan nan nan nan nan nan
nan nan nan nan nan nan nan nan nan nan nan nan nan nan nan nan nan nan nan nan nan nan nan nan nan 43 41 37 36 33 34 32 33 34 33 27 26 26 25 24 23 19 21 16 14 19 22 20 20 19 16 16 16 15 15 16 17 17 18 19 21 22 23 25 25 24 24 25 27 26 26 nan nan nan nan nan nan nan nan nan nan nan nan nan nan nan
nan nan nan nan nan nan nan nan nan nan nan nan nan nan nan nan nan nan nan nan nan nan nan nan 43 44 45 39 34 33 32 30 30 31 31 29 29 29 31 26 24 20 24 21 18 20 23 21 22 21 17 15 15 15 15 17 17 17 16 18 22 23 25 24 25 25 24 27 28 27 27 nan nan nan nan nan nan nan nan nan nan nan nan nan nan nan
nan nan nan nan nan nan nan nan nan nan nan nan nan nan nan nan nan nan nan nan nan nan nan nan 42 44 42 39 33 29 28 29 30 30 32 29 29 32 30 20 25 24 28 22 21 20 23 23 20 22 20 16 15 16 17 18 21 20 19 21 23 25 24 25 25 25 27 28 28 27 nan nan nan nan nan nan nan nan nan nan nan nan nan nan nan nan
nan nan nan nan nan nan nan nan nan nan nan nan nan nan nan nan nan nan nan nan nan nan nan nan nan 41 40 36 27 24 25 27 28 27 25 25 27 28 26 22 27 25 25 23 23 23 25 26 22 19 18 16 15 16 19 22 23 24 23 25 26 26 26 27 27 27 29 28 28 nan nan nan nan nan nan nan nan nan nan nan nan nan nan nan nan nan
nan nan nan nan nan nan nan nan nan nan nan nan nan nan nan nan nan nan nan nan nan nan nan nan nan nan nan 34 29 23 23 22 21 20 22 25 27 28 28 26 28 28 25 24 24 26 27 26 22 20 20 18 17 17 20 22 23 23 24 26 26 27 27 28 26 27 29 nan nan nan nan nan nan nan nan nan nan nan nan nan nan nan nan nan nan nan
nan nan nan nan nan nan nan nan nan nan nan nan nan nan nan nan nan nan nan nan nan nan nan nan nan nan nan nan 32 27 25 25 24 25 25 26 27 30 30 31 27 28 25 26 23 26 29 27 25 23 22 21 22 23 23 21 22 24 27 28 28 27 25 28 27 28 nan nan nan nan nan nan nan nan nan nan nan nan nan nan nan nan nan nan nan nan
nan nan nan nan nan nan nan nan nan nan nan nan nan nan nan nan nan nan nan nan nan nan nan nan nan nan nan 36 34 31 31 26 27 29 29 29 30 33 34 33 26 28 27 26 26 25 29 30 26 25 25 25 26 26 25 23 25 26 28 29 28 29 27 27 29 nan nan nan nan nan nan nan nan nan nan nan nan nan nan nan nan nan nan nan nan nan
nan nan nan nan nan nan nan nan nan nan nan nan nan nan nan nan nan nan nan nan nan nan nan nan nan nan 37 37 36 37 35 31 31 30 30 30 30 31 32 30 28 29 29 29 28 28 29 29 29 29 28 29 29 28 27 26 27 28 27 28 30 30 29 29 nan nan nan nan nan nan nan nan nan nan nan nan nan nan nan nan nan nan nan nan nan nan
nan nan nan nan nan nan nan nan nan nan nan nan nan nan nan nan nan nan nan nan nan nan nan nan nan nan 35 35 37 37 35 32 32 31 32 32 31 30 30 28 28 31 32 30 30 29 29 30 31 31 31 32 32 31 29 nan 28 28 28 28 30 30 30 nan nan nan nan nan nan nan nan nan nan nan nan nan nan nan nan nan nan nan nan nan nan nan
nan nan nan nan nan nan nan nan nan nan nan nan nan nan nan nan nan nan nan nan nan nan nan nan nan 37 36 37 36 36 34 33 32 32 33 34 33 32 31 29 29 32 31 30 30 30 30 30 30 33 35 34 33 32 31 29 28 29 30 29 28 31 nan nan nan nan nan nan nan nan nan nan nan nan nan nan nan nan nan nan nan nan nan nan nan nan
nan nan nan nan nan nan nan nan nan nan nan nan nan nan nan nan nan nan nan nan nan nan nan nan nan 40 37 35 33 34 34 32 31 31 31 33 33 32 32 32 31 32 32 31 30 29 30 32 35 35 35 36 34 33 31 30 30 30 30 30 29 nan nan nan nan nan nan nan nan nan nan nan nan nan nan nan nan nan nan nan nan nan nan nan nan nan
nan nan nan nan nan nan nan nan nan nan nan nan nan nan nan nan nan nan nan nan nan nan nan nan nan 42 31 33 32 34 34 33 31 32 32 33 34 33 33 35 35 35 33 30 29 30 32 34 34 34 36 38 36 35 34 nan nan 31 30 30 nan nan nan nan nan nan nan nan nan nan nan nan nan nan nan nan nan nan nan nan nan nan nan nan nan nan
nan nan nan nan nan nan nan nan nan nan nan nan nan nan nan nan nan nan nan nan nan nan nan nan nan nan 33 31 31 31 32 32 31 32 33 35 37 37 36 37 36 35 34 32 32 33 35 35 34 35 37 38 38 38 37 nan nan 33 32 nan nan nan nan nan nan nan nan nan nan nan nan nan nan nan nan nan nan nan nan nan nan nan nan nan nan nan
nan nan nan nan nan nan nan nan nan nan nan nan nan nan nan nan nan nan nan nan nan nan nan nan nan nan 41 38 37 39 40 40 38 38 38 37 36 38 38 37 36 34 34 34 35 36 36 37 37 38 40 40 42 42 40 nan 36 34 nan nan nan nan nan nan nan nan nan nan nan nan nan nan nan nan nan nan nan nan nan nan nan nan nan nan nan nan
nan nan nan nan nan nan nan nan nan nan nan nan nan nan nan nan nan nan nan nan nan nan nan nan nan nan 42 43 44 46 46 45 43 40 39 38 37 37 38 37 35 34 34 36 37 37 39 39 40 42 42 42 44 44 42 38 36 nan nan nan nan nan nan nan nan nan nan nan nan nan nan nan nan nan nan nan nan nan nan nan nan nan nan nan nan nan
nan nan nan nan nan nan nan nan nan nan nan nan nan nan nan nan nan nan nan nan nan nan nan nan nan nan 40 44 47 46 46 44 41 40 40 38 38 38 38 37 36 35 35 37 38 40 42 42 43 43 43 43 42 42 41 39 nan nan nan nan nan nan nan nan nan nan nan nan nan nan nan nan nan nan nan nan nan nan nan nan nan nan nan nan nan nan
nan nan nan nan nan nan nan nan nan nan nan nan nan nan nan nan nan nan nan nan nan nan nan nan nan nan 41 43 45 41 41 40 39 37 37 37 35 35 36 36 34 34 35 36 37 39 39 40 41 42 42 41 41 nan 40 nan nan nan nan nan nan nan nan nan nan nan nan nan nan nan nan nan nan nan nan nan nan nan nan nan nan nan nan nan nan nan
nan nan nan nan nan nan nan nan nan nan nan nan nan 41 nan nan nan nan nan nan nan nan nan nan nan nan 45 42 40 38 35 32 33 32 33 34 33 31 32 33 32 33 33 34 36 37 37 37 38 39 38 nan nan nan nan nan nan nan nan nan nan nan nan nan nan nan nan nan nan nan nan nan nan nan nan nan nan nan nan nan nan nan nan nan nan nan
nan nan nan nan nan nan nan nan nan nan nan nan nan 37 37 40 43 nan nan nan nan nan nan nan nan nan 37 38 38 38 40 41 38 36 31 30 32 29 28 28 30 32 33 35 36 35 36 37 39 41 nan nan nan nan nan nan nan nan nan nan nan nan nan nan nan nan nan nan nan nan nan nan nan nan nan nan nan nan nan nan nan nan nan nan nan nan
nan nan nan nan nan nan nan nan nan nan 38 40 41 41 39 40 40 nan 43 nan nan nan nan nan nan 41 43 44 44 43 44 44 42 37 35 29 28 30 30 28 31 33 35 33 36 36 38 39 41 nan nan nan nan nan nan nan nan nan nan nan nan nan nan nan nan nan nan nan nan nan nan nan nan nan nan nan nan nan nan nan nan nan nan nan nan nan
nan nan nan nan nan nan nan nan nan nan nan 39 42 37 37 37 nan nan 38 nan nan nan nan nan nan 42 46 46 45 44 45 46 45 39 35 34 33 31 32 34 34 35 36 34 37 39 39 41 43 nan nan nan nan nan nan nan nan nan nan nan nan nan nan nan nan nan nan nan nan nan nan nan nan nan nan nan nan nan nan nan nan nan nan nan nan nan
nan nan nan nan nan nan nan nan nan nan nan nan 29 36 37 37 nan nan nan 40 nan nan nan nan nan 41 45 46 45 43 44 46 39 33 34 39 40 43 43 41 40 40 39 40 40 40 41 41 42 nan nan nan nan nan nan nan nan nan nan nan nan nan nan nan nan nan nan nan nan nan nan nan nan nan nan nan nan nan nan nan nan nan nan nan nan nan
nan nan nan nan nan nan nan nan nan nan nan nan 26 31 32 36 38 38 nan nan nan 35 35 39 nan nan 41 45 44 43 43 37 29 30 37 41 43 44 46 43 43 42 42 43 45 44 42 nan nan nan 40 41 nan nan nan nan nan nan nan nan nan nan nan nan nan nan nan nan nan nan nan nan nan nan nan nan nan nan nan nan nan nan nan nan nan nan
nan nan nan nan nan nan nan nan nan nan 35 nan nan 32 31 36 35 37 nan nan nan nan 32 34 36 nan 37 40 41 40 39 35 28 31 42 45 46 45 46 47 47 47 46 44 42 nan nan nan nan nan 40 nan nan nan nan nan nan nan nan nan nan nan nan nan nan nan nan nan nan nan nan nan nan nan nan nan nan nan nan nan nan nan nan nan nan nan
nan nan nan nan nan nan nan nan nan nan nan nan nan 32 36 35 39 nan nan nan nan nan 27 30 33 34 nan 39 38 35 34 40 43 51 52 52 51 47 45 45 47 48 48 44 40 nan nan nan nan nan nan nan nan nan nan nan nan nan nan nan nan nan nan nan nan nan nan nan nan nan nan nan nan nan nan nan nan nan nan nan nan nan nan nan nan nan
nan nan nan nan nan nan nan nan nan nan nan nan 31 32 32 nan nan nan nan nan nan nan 26 28 31 32 34 35 38 43 42 48 53 53 53 53 52 49 49 49 48 44 nan 42 40 nan nan nan nan nan nan nan nan nan nan nan nan nan nan nan nan nan nan nan nan nan nan nan nan nan nan nan nan nan nan nan nan nan nan nan nan nan nan nan nan nan
nan nan nan nan nan nan nan nan nan nan nan nan 31 33 32 nan nan nan nan nan nan nan 29 28 28 30 34 40 45 46 46 48 50 50 50 51 52 51 50 50 50 nan nan nan nan nan nan nan nan nan nan nan nan nan nan nan nan nan nan nan nan nan nan nan nan nan nan nan nan nan nan nan nan nan nan nan nan nan nan nan nan nan nan nan nan nan
nan nan nan nan nan nan nan nan nan nan nan nan 27 27 28 nan 37 nan 37 nan nan nan 31 30 26 27 31 38 42 45 46 48 48 49 49 49 50 49 48 48 nan nan nan nan nan nan nan nan nan nan nan nan nan nan nan nan nan nan nan nan nan nan nan nan nan nan nan nan nan nan nan nan nan nan nan nan nan nan nan nan nan nan nan nan nan nan
nan nan nan nan nan nan nan nan nan nan nan nan 28 nan nan nan nan nan nan nan nan 33 32 29 26 26 30 32 36 40 42 44 46 46 49 47 48 47 46 46 nan nan nan nan nan nan nan nan nan nan nan nan nan nan nan nan nan nan nan nan nan nan nan nan nan nan nan nan nan nan nan nan nan nan nan nan nan nan nan nan nan nan nan nan nan nan
nan nan nan nan nan nan nan nan nan nan nan nan nan nan nan nan nan nan nan nan nan nan 29 28 27 28 28 29 33 31 nan nan 41 41 43 43 43 42 44 nan nan nan nan nan nan nan nan nan nan nan nan nan nan nan nan nan nan nan nan nan nan nan nan nan nan nan nan nan nan nan nan nan nan nan nan nan nan nan nan nan nan nan nan nan nan nan
nan nan nan nan nan nan nan nan nan nan nan nan nan nan nan nan nan nan nan nan nan nan 34 30 29 29 29 28 30 nan nan nan 33 nan nan nan nan 38 nan nan nan nan nan nan nan nan nan nan nan nan nan nan nan nan nan nan nan nan nan nan nan nan nan nan nan nan nan nan nan nan nan nan nan nan nan nan nan nan nan nan nan nan nan nan nan nan
nan nan nan nan nan nan nan nan nan nan nan nan nan nan nan nan nan nan nan nan nan nan nan 31 32 31 29 29 nan nan nan nan nan nan nan nan nan nan nan nan nan nan nan nan nan nan nan nan nan nan nan nan nan nan nan nan nan nan nan nan nan nan nan nan nan nan nan nan nan nan nan nan nan nan nan nan nan nan nan nan nan nan nan nan nan nan
nan nan nan nan nan nan nan nan nan nan nan nan nan nan nan nan nan nan nan nan nan nan nan nan 29 nan nan 29 nan nan nan nan nan nan nan nan nan nan nan nan nan nan nan nan nan nan nan nan nan nan nan nan nan nan nan nan nan nan nan nan nan nan nan nan nan nan nan nan nan nan nan nan nan nan nan nan nan nan nan nan nan nan nan nan nan nan
nan nan nan nan nan nan nan nan nan nan nan nan nan nan nan nan nan nan nan nan nan nan nan nan nan 35 33 30 29 nan nan nan nan nan nan nan nan nan nan nan nan nan nan nan nan nan nan nan nan nan nan nan nan nan nan nan nan nan nan nan nan nan nan nan nan nan nan nan nan nan nan nan nan nan nan nan nan nan nan nan nan nan nan nan nan nan
nan nan nan nan nan nan nan nan nan nan nan nan nan nan nan nan nan nan nan nan nan nan nan nan nan nan nan 36 34 nan nan nan nan nan nan nan nan nan nan nan nan nan nan nan nan nan nan nan nan nan nan nan nan nan nan nan nan nan nan nan nan nan nan nan nan nan nan nan nan nan nan nan nan nan nan nan nan nan nan nan nan nan nan nan nan nan
Wind_Direction
nan nan nan nan nan nan nan nan nan nan nan nan nan nan nan nan nan nan nan nan nan nan nan nan nan 245 248 252 251 258 245 241 240 254 233 223 242 247 251 252 255 260 255 254 253 251 252 251 249 249 253 256 257 256 267 271 276 281 286 287 283 267 256 250 251 249 253 250 247 247 253 262 269 277 284 288 289 291 297 299 303 308 313 316 318 317
nan nan nan nan nan nan nan nan nan nan nan nan nan nan nan nan nan nan nan nan nan nan nan nan 243 249 253 250 248 246 246 249 256 261 273 231 237 249 259 254 254 251 245 250 251 255 256 255 254 252 256 265 265 260 265 273 279 284 291 288 275 261 252 250 251 249 248 249 258 261 266 272 278 284 285 282 284 292 294 299 304 307 311 314 316 313
nan nan nan nan nan nan nan nan nan nan nan nan nan nan nan nan nan nan nan nan nan nan nan nan nan 243 244 248 249 254 258 256 260 262 263 264 223 241 247 247 246 246 246 246 250 253 257 257 254 252 251 253 254 256 259 267 277 284 286 278 265 251 247 244 247 250 247 250 256 265 271 278 274 277 286 289 292 289 292 295 302 304 305 310 312 314
nan nan nan nan nan nan nan nan nan nan nan nan nan nan nan nan nan nan nan nan nan nan nan nan nan nan 230 231 246 246 243 235 230 221 223 219 243 223 222 225 237 239 246 254 256 255 258 253 255 252 250 254 253 253 255 261 273 277 277 269 256 245 238 241 244 250 251 255 253 254 260 265 271 275 279 279 282 284 288 289 295 300 308 313 317 317
nan nan nan nan nan nan nan nan nan nan nan nan nan nan nan nan nan nan nan nan nan nan nan nan nan nan 234 239 236 229 235 240 229 225 217 225 224 208 192 207 219 230 235 240 247 258 263 257 251 249 249 247 250 250 256 267 272 276 278 266 246 240 244 239 242 244 247 250 252 256 260 263 271 277 272 279 282 284 289 290 288 293 304 307 310 312
nan nan nan nan nan nan nan nan nan nan nan nan nan nan nan nan nan nan nan nan nan nan nan nan nan nan nan 231 240 239 238 239 235 233 226 230 222 212 185 185 207 217 217 226 247 277 267 258 246 243 240 239 244 248 250 261 267 262 257 245 234 232 237 249 251 253 252 256 265 269 273 273 274 276 274 272 280 279 280 283 295 290 293 297 nan nan
nan nan nan nan nan nan nan nan nan nan nan nan nan nan nan nan nan nan nan nan nan nan nan nan nan nan nan 228 229 235 240 241 234 233 236 243 223 206 208 170 194 217 231 230 254 285 272 259 249 239 234 235 241 243 245 248 246 238 238 244 244 239 243 249 251 250 257 259 266 274 277 280 280 282 285 288 288 282 281 287 283 289 nan nan nan nan
nan nan nan nan nan nan nan nan nan nan nan nan nan nan nan nan nan nan nan nan nan nan nan nan nan nan nan nan 228 233 238 236 231 208 213 224 218 204 224 214 176 209 222 241 278 287 263 256 248 244 237 236 234 235 238 239 239 238 241 248 247 242 242 243 249 246 251 267 272 272 273 276 279 284 284 281 282 287 289 281 281 288 nan nan nan nan
nan nan nan nan nan nan nan nan nan nan nan nan nan nan nan nan nan nan nan nan nan nan nan nan nan nan nan nan nan 239 238 229 231 218 204 218 219 217 235 245 177 190 217 252 301 298 291 289 287 270 253 243 238 235 237 243 245 243 246 249 247 243 243 244 245 247 252 262 265 268 273 274 277 282 283 289 291 286 284 282 281 nan nan nan nan nan
nan nan nan nan nan nan nan nan nan nan nan nan nan nan nan nan nan nan nan nan nan nan nan nan nan nan nan nan 229 235 235 235 233 226 213 226 230 230 244 269 259 211 216 236 272 295 305 302 291 275 261 249 242 239 241 243 250 250 249 249 247 242 243 246 245 250 256 260 263 265 268 272 273 277 282 286 285 285 287 284 nan nan nan nan nan nan
nan nan nan nan nan nan nan nan nan nan nan nan nan nan nan nan nan nan nan nan nan nan nan nan nan nan nan nan 237 243 234 247 244 227 218 223 225 236 247 263 249 229 226 235 281 297 293 286 278 267 268 266 256 250 246 246 251 254 252 250 245 242 246 249 252 258 262 263 264 269 271 275 276 279 283 284 283 283 281 nan nan nan nan nan nan nan
nan nan nan nan nan nan nan nan nan nan nan nan nan nan nan nan nan nan nan nan nan nan nan nan nan nan nan nan nan 226 230 246 254 252 246 254 264 255 256 254 236 224 228 260 274 286 285 284 278 272 274 275 268 261 255 249 249 252 254 254 251 246 253 258 262 264 264 265 266 269 273 276 280 284 nan 285 284 283 nan nan nan nan nan nan nan nan
nan nan nan nan nan nan nan nan nan nan nan nan nan nan nan nan nan nan nan nan nan nan nan nan nan nan nan nan nan 230 227 237 243 250 257 269 265 268 261 254 236 225 242 256 260 274 283 289 287 279 272 274 274 266 259 254 248 246 248 253 258 255 258 264 267 268 269 269 269 272 275 279 284 285 nan nan nan nan nan 277 nan nan nan nan nan nan
nan nan nan nan nan nan nan nan nan nan nan nan nan nan nan nan nan nan nan nan nan nan nan nan nan nan nan nan nan 222 221 218 234 232 224 220 226 235 245 248 241 238 248 244 261 276 284 284 279 275 271 267 266 262 260 257 251 248 249 248 254 259 264 271 271 271 270 270 274 277 280 283 285 286 nan nan nan nan nan nan nan nan nan nan nan nan
nan nan nan nan nan nan nan nan nan nan nan nan nan nan nan nan nan nan nan nan nan nan nan nan nan nan nan nan 216 214 215 219 233 234 232 231 228 226 232 237 237 243 248 247 254 271 277 276 274 272 265 260 260 262 261 260 257 252 251 252 255 260 264 267 267 269 270 274 276 279 283 284 286 nan nan nan nan nan nan nan nan nan nan nan nan nan
nan nan nan nan nan nan nan nan nan nan nan nan nan nan nan nan nan nan nan nan nan nan nan nan nan 222 226 217 214 222 226 226 235 238 237 234 233 233 236 248 245 242 256 252 258 266 268 269 267 266 263 258 256 254 257 259 254 251 250 254 259 264 266 266 266 268 273 277 280 279 280 281 nan nan nan nan nan nan nan nan nan nan nan nan nan nan
nan nan nan nan nan nan nan nan nan nan nan nan nan nan nan nan nan nan nan nan nan nan nan nan nan 221 224 221 223 229 234 231 234 239 238 230 232 235 233 245 247 243 254 256 257 265 269 269 267 263 256 256 258 253 252 252 250 247 249 255 261 264 265 266 269 273 277 279 277 277 278 nan nan nan nan nan nan nan nan nan nan nan nan nan nan nan
nan nan nan nan nan nan nan nan nan nan nan nan nan nan nan nan nan nan nan nan nan nan nan nan 218 221 226 220 228 232 238 241 246 247 240 228 228 233 227 220 247 253 253 249 250 264 274 275 277 270 261 257 259 259 257 260 257 254 255 261 264 265 267 269 271 273 275 274 274 274 276 nan nan nan nan nan nan nan nan nan nan nan nan nan nan nan
nan nan nan nan nan nan nan nan nan nan nan nan nan nan nan nan nan nan nan nan nan nan nan nan 215 220 227 224 232 238 246 256 257 247 239 232 230 234 245 230 251 260 263 257 256 258 270 277 280 281 279 267 260 262 262 259 261 260 257 258 262 265 267 270 271 271 270 270 274 277 nan nan nan nan nan nan nan nan nan nan nan nan nan nan nan nan
nan nan nan nan nan nan nan nan nan nan nan nan nan nan nan nan nan nan nan nan nan nan nan nan nan 216 223 226 235 238 246 255 260 257 253 246 238 244 253 253 261 259 266 266 265 263 268 276 274 271 274 277 275 271 266 260 258 257 258 261 264 263 263 263 261 265 268 270 274 nan nan nan nan nan nan nan nan nan nan nan nan nan nan nan nan nan
nan nan nan nan nan nan nan nan nan nan nan nan nan nan nan nan nan nan nan nan nan nan nan nan nan nan nan 227 232 233 242 255 263 261 250 247 247 251 255 255 259 262 262 267 269 271 274 276 270 270 275 273 270 270 267 262 259 261 262 262 260 262 263 262 263 266 270 nan nan nan nan nan nan nan nan nan nan nan nan nan nan nan nan nan nan nan
nan nan nan nan nan nan nan nan nan nan nan nan nan nan nan nan nan nan nan nan nan nan nan nan nan nan nan nan 221 234 238 241 236 233 233 240 248 255 254 255 257 263 263 269 266 270 272 268 268 272 275 278 281 277 271 265 266 263 262 263 264 264 262 266 265 268 nan nan nan nan nan nan nan nan nan nan nan nan nan nan nan nan nan nan nan nan
nan nan nan nan nan nan nan nan nan nan nan nan nan nan nan nan nan nan nan nan nan nan nan nan nan nan nan 220 219 235 237 240 234 235 232 234 240 247 250 256 254 263 268 267 264 258 262 266 266 269 274 278 278 275 273 272 268 266 266 265 266 268 265 265 268 nan nan nan nan nan nan nan nan nan nan nan nan nan nan nan nan nan nan nan nan nan
nan nan nan nan nan nan nan nan nan nan nan nan nan nan nan nan nan nan nan nan nan nan nan nan nan nan 220 219 225 237 234 233 230 234 236 235 238 245 254 261 268 266 266 265 258 254 255 260 265 267 270 271 269 270 273 273 271 269 267 269 270 269 268 266 nan nan nan nan nan nan nan nan nan nan nan nan nan nan nan nan nan nan nan nan nan nan
nan nan nan nan nan nan nan nan nan nan nan nan nan nan nan nan nan nan nan nan nan nan nan nan nan nan 225 226 234 240 239 237 238 235 241 240 239 248 257 263 266 268 265 264 265 262 256 255 260 263 266 266 265 266 268 nan 272 271 269 268 269 269 269 nan nan nan nan nan nan nan nan nan nan nan nan nan nan nan nan nan nan nan nan nan nan nan
nan nan nan nan nan nan nan nan nan nan nan nan nan nan nan nan nan nan nan nan nan nan nan nan nan 227 230 236 242 247 248 242 240 243 243 245 247 253 258 263 266 265 264 264 263 260 259 257 257 260 261 260 261 265 268 269 270 269 268 266 268 269 nan nan nan nan nan nan nan nan nan nan nan nan nan nan nan nan nan nan nan nan nan nan nan nan
nan nan nan nan nan nan nan nan nan nan nan nan nan nan nan nan nan nan nan nan nan nan nan nan nan 238 242 249 252 257 258 259 257 257 259 258 257 257 262 266 268 264 263 267 267 263 259 257 258 260 262 261 264 269 271 273 273 271 271 268 266 nan nan nan nan nan nan nan nan nan nan nan nan nan nan nan nan nan nan nan nan nan nan nan nan nan
nan nan nan nan nan nan nan nan nan nan nan nan nan nan nan nan nan nan nan nan nan nan nan nan nan 244 243 250 252 260 261 260 258 259 260 261 263 263 264 267 267 264 265 269 268 266 264 261 260 263 264 266 270 273 272 nan nan 274 271 268 nan nan nan nan nan nan nan nan nan nan nan nan nan nan nan nan nan nan nan nan nan nan nan nan nan nan
nan nan nan nan nan nan nan nan nan nan nan nan nan nan nan nan nan nan nan nan nan nan nan nan nan nan 245 255 262 267 272 275 273 268 261 259 259 260 263 268 268 266 266 268 267 264 265 266 265 266 266 269 275 274 275 nan nan 271 265 nan nan nan nan nan nan nan nan nan nan nan nan nan nan nan nan nan nan nan nan nan nan nan nan nan nan nan
nan nan nan nan nan nan nan nan nan nan nan nan nan nan nan nan nan nan nan nan nan nan nan nan nan nan 234 245 249 245 243 251 253 252 255 260 264 266 266 267 268 268 268 269 269 268 268 269 269 268 269 272 275 274 274 nan 271 267 nan nan nan nan nan nan nan nan nan nan nan nan nan nan nan nan nan nan nan nan nan nan nan nan nan nan nan nan
nan nan nan nan nan nan nan nan nan nan nan nan nan nan nan nan nan nan nan nan nan nan nan nan nan nan 232 243 248 248 249 249 254 260 263 264 265 270 272 270 269 271 271 272 274 276 271 270 269 270 271 272 272 272 269 267 265 nan nan nan nan nan nan nan nan nan nan nan nan nan nan nan nan nan nan nan nan nan nan nan nan nan nan nan nan nan
nan nan nan nan nan nan nan nan nan nan nan nan nan nan nan nan nan nan nan nan nan nan nan nan nan nan 233 247 250 254 257 260 263 264 265 265 269 271 272 273 274 273 273 274 275 274 275 275 274 274 273 271 268 265 263 261 nan nan nan nan nan nan nan nan nan nan nan nan nan nan nan nan nan nan nan nan nan nan nan nan nan nan nan nan nan nan
nan nan nan nan nan nan nan nan nan nan nan nan nan nan nan nan nan nan nan nan nan nan nan nan nan nan 245 249 255 259 265 265 265 267 266 267 269 272 275 276 276 275 274 276 277 277 278 278 278 278 274 271 270 nan 264 nan nan nan nan nan nan nan nan nan nan nan nan nan nan nan nan nan nan nan nan nan nan nan nan nan nan nan nan nan nan nan
nan nan nan nan nan nan nan nan nan nan nan nan nan 207 nan nan nan nan nan nan nan nan nan nan nan nan 248 251 256 260 270 279 277 268 267 269 266 264 268 274 277 276 274 273 273 276 276 274 274 274 274 nan nan nan nan nan nan nan nan nan nan nan nan nan nan nan nan nan nan nan nan nan nan nan nan nan nan nan nan nan nan nan nan nan nan nan
nan nan nan nan nan nan nan nan nan nan nan nan nan 206 209 211 214 nan nan nan nan nan nan nan nan nan 252 250 252 249 245 244 249 258 255 261 265 266 269 265 267 268 269 268 270 273 274 274 272 271 nan nan nan nan nan nan nan nan nan nan nan nan nan nan nan nan nan nan nan nan nan nan nan nan nan nan nan nan nan nan nan nan nan nan nan nan
nan nan nan nan nan nan nan nan nan nan 208 208 207 212 215 218 215 nan 219 nan nan nan nan nan nan 237 243 244 245 245 246 245 246 250 260 260 263 270 269 269 271 270 272 274 276 277 276 276 277 nan nan nan nan nan nan nan nan nan nan nan nan nan nan nan nan nan nan nan nan nan nan nan nan nan nan nan nan nan nan nan nan nan nan nan nan nan
nan nan nan nan nan nan nan nan nan nan nan 215 213 217 222 225 nan nan 224 nan nan nan nan nan nan 240 243 245 246 248 249 248 247 243 241 253 253 251 267 273 273 273 273 272 276 279 278 277 277 nan nan nan nan nan nan nan nan nan nan nan nan nan nan nan nan nan nan nan nan nan nan nan nan nan nan nan nan nan nan nan nan nan nan nan nan nan
nan nan nan nan nan nan nan nan nan nan nan nan 215 216 221 223 nan nan nan 225 nan nan nan nan nan 246 248 248 249 250 252 251 250 250 250 248 251 257 253 255 261 268 270 270 269 271 273 272 273 nan nan nan nan nan nan nan nan nan nan nan nan nan nan nan nan nan nan nan nan nan nan nan nan nan nan nan nan nan nan nan nan nan nan nan nan nan
nan nan nan nan nan nan nan nan nan nan nan nan 221 222 222 225 230 230 nan nan nan 247 243 252 nan nan 255 258 255 253 251 254 258 258 254 256 259 261 264 266 270 271 272 277 281 279 276 nan nan nan 272 271 nan nan nan nan nan nan nan nan nan nan nan nan nan nan nan nan nan nan nan nan nan nan nan nan nan nan nan nan nan nan nan nan nan nan
nan nan nan nan nan nan nan nan nan nan 224 nan nan 224 226 230 229 228 nan nan nan nan 259 263 267 nan 259 256 259 258 257 252 257 261 262 262 264 266 272 274 274 273 272 274 275 nan nan nan nan nan 273 nan nan nan nan nan nan nan nan nan nan nan nan nan nan nan nan nan nan nan nan nan nan nan nan nan nan nan nan nan nan nan nan nan nan nan
nan nan nan nan nan nan nan nan nan nan nan nan nan 227 231 230 229 nan nan nan nan nan 266 272 275 272 nan 261 257 258 248 236 242 256 263 264 264 265 268 272 277 281 283 281 279 nan nan nan nan nan nan nan nan nan nan nan nan nan nan nan nan nan nan nan nan nan nan nan nan nan nan nan nan nan nan nan nan nan nan nan nan nan nan nan nan nan
nan nan nan nan nan nan nan nan nan nan nan nan 220 231 232 nan nan nan nan nan nan nan 247 256 261 263 265 264 249 238 243 253 257 259 264 267 269 271 275 274 272 269 nan 277 279 nan nan nan nan nan nan nan nan nan nan nan nan nan nan nan nan nan nan nan nan nan nan nan nan nan nan nan nan nan nan nan nan nan nan nan nan nan nan nan nan nan
nan nan nan nan nan nan nan nan nan nan nan nan 244 230 230 nan nan nan nan nan nan nan 258 253 260 257 255 245 240 249 252 259 262 263 262 265 270 273 275 277 278 nan nan nan nan nan nan nan nan nan nan nan nan nan nan nan nan nan nan nan nan nan nan nan nan nan nan nan nan nan nan nan nan nan nan nan nan nan nan nan nan nan nan nan nan nan
nan nan nan nan nan nan nan nan nan nan nan nan 244 247 240 nan 238 nan 240 nan nan nan 249 250 250 257 253 250 250 252 256 259 260 263 263 264 270 272 274 276 nan nan nan nan nan nan nan nan nan nan nan nan nan nan nan nan nan nan nan nan nan nan nan nan nan nan nan nan nan nan nan nan nan nan nan nan nan nan nan nan nan nan nan nan nan nan
nan nan nan nan nan nan nan nan nan nan nan nan 233 nan nan nan nan nan nan nan nan 238 235 243 248 249 255 256 255 255 253 257 259 262 265 266 268 270 272 275 nan nan nan nan nan nan nan nan nan nan nan nan nan nan nan nan nan nan nan nan nan nan nan nan nan nan nan nan nan nan nan nan nan nan nan nan nan nan nan nan nan nan nan nan nan nan
nan nan nan nan nan nan nan nan nan nan nan nan nan nan nan nan nan nan nan nan nan nan 234 242 242 248 252 256 255 247 nan nan 256 255 258 261 263 265 269 nan nan nan nan nan nan nan nan nan nan nan nan nan nan nan nan nan nan nan nan nan nan nan nan nan nan nan nan nan nan nan nan nan nan nan nan nan nan nan nan nan nan nan nan nan nan nan
nan nan nan nan nan nan nan nan nan nan nan nan nan nan nan nan nan nan nan nan nan nan 231 235 245 250 252 249 254 nan nan nan 257 nan nan nan nan 265 nan nan nan nan nan nan nan nan nan nan nan nan nan nan nan nan nan nan nan nan nan nan nan nan nan nan nan nan nan nan nan nan nan nan nan nan nan nan nan nan nan nan nan nan nan nan nan nan
nan nan nan nan nan nan nan nan nan nan nan nan nan nan nan nan nan nan nan nan nan nan nan 239 242 244 248 248 nan nan nan nan nan nan nan nan nan nan nan nan nan nan nan nan nan nan nan nan nan nan nan nan nan nan nan nan nan nan nan nan nan nan nan nan nan nan nan nan nan nan nan nan nan nan nan nan nan nan nan nan nan nan nan nan nan nan
nan nan nan nan nan nan nan nan nan nan nan nan nan nan nan nan nan nan nan nan nan nan nan nan 235 nan nan 247 nan nan nan nan nan nan nan nan nan nan nan nan nan nan nan nan nan nan nan nan nan nan nan nan nan nan nan nan nan nan nan nan nan nan nan nan nan nan nan nan nan nan nan nan nan nan nan nan nan nan nan nan nan nan nan nan nan nan
nan nan nan nan nan nan nan nan nan nan nan nan nan nan nan nan nan nan nan nan nan nan nan nan nan 226 233 246 252 nan nan nan nan nan nan nan nan nan nan nan nan nan nan nan nan nan nan nan nan nan nan nan nan nan nan nan nan nan nan nan nan nan nan nan nan nan nan nan nan nan nan nan nan nan nan nan nan nan nan nan nan nan nan nan nan nan
nan nan nan nan nan nan nan nan nan nan nan nan nan nan nan nan nan nan nan nan nan nan nan nan nan nan nan 230 230 nan nan nan nan nan nan nan nan nan nan nan nan nan nan nan nan nan nan nan nan nan nan nan nan nan nan nan nan nan nan nan nan nan nan nan nan nan nan nan nan nan nan nan nan nan nan nan nan nan nan nan nan nan nan nan nan nan